Simultaneous Nadir Overpasses (SNOs) Predictions

Prediction of SNOs between GOES-16 and TERRA Satellite Orbit:

Table of predicted SNOs for the next 14.0 days since TLE Epoch: 1/14/2023
Index Date Time (GOES-16) GOES-16 Lat,Lon TERRA Lat,Lon Distance(km) Time Diff (sec)
1 01/15/2023 02:57:02 -0.00, -75.18 0.69, -71.82 381.81 80
2 01/15/2023 15:20:02 0.01, -75.20 0.33, -76.76 177.29 80
3 01/17/2023 15:01:34 -0.00, -75.21 -0.49, -72.95 257.71 80
4 01/18/2023 03:24:42 0.00, -75.20 -0.57, -77.92 309.00 80
5 01/20/2023 03:06:13 0.01, -75.21 0.22, -74.09 126.11 80
6 01/20/2023 15:29:12 -0.01, -75.23 0.78, -79.04 433.00 80
7 01/22/2023 15:10:43 -0.02, -75.24 -0.04, -75.22 3.79 80
8 01/24/2023 14:54:53 0.02, -75.26 -0.77, -71.38 441.21 80
9 01/25/2023 03:18:00 -0.02, -75.25 -0.28, -76.35 124.79 80
10 01/27/2023 02:59:30 -0.02, -75.29 0.54, -72.52 313.80 80
11 01/27/2023 15:19:49 0.02, -75.31 0.49, -77.46 244.45 80
